Location: Unspecified
(0.0000°N, 0.0000°E)
Time: 19:56:21
(UTC+02:00)

CZ-4B DEB - Visible Passes

Search period start: 29 July 2015 00:00
Search period end: 08 August 2015 00:00
Orbit: 477 x 485 km, 97.5° (Epoch: 28 July)

Date Brightness Start Highest point End Pass type
(mag) Time Alt. Az. Time Alt. Az. Time Alt. Az.
30 Jul 5.4 21:29:41 10° SSW 21:32:36 23° W 21:35:27 10° NW visible
31 Jul 3.4 21:03:37 10° S 21:07:09 66° WSW 21:10:41 10° NNW visible
01 Aug 3.5 20:38:20 10° SSE 20:41:42 40° E 20:45:04 10° N visible
02 Aug 6.1 21:47:41 10° SW 21:49:26 13° W 21:50:58 10° WNW visible
03 Aug 4.8 21:20:37 10° SSW 21:23:52 33° W 21:27:04 10° NW visible
04 Aug 2.9 20:54:46 10° SSE 20:58:20 83° E 21:01:54 10° N visible
05 Aug 4.0 20:29:42 10° SE 20:32:47 28° E 20:35:54 10° NNE visible
06 Aug 5.8 21:37:51 10° SW 21:40:24 18° W 21:42:49 10° WNW visible
07 Aug 4.0 21:11:18 10° S 21:14:46 48° W 21:18:12 10° NNW visible
